Regional Weather Roundup
Issued by NWS

Home | Current Version | Previous Version | Graphics & Text | Print | Product List | Glossary On
Versions: 1 2 3 4 5 6 7 8 9 10 11 12 13 14 15 16 17 18 19 20 21 22 23 24 25 26 27 28 29 30 31 32 33 34 35 36 37 38 39 40 41 42 43 44 45 46 47 48 49 50
279
ASUS43 KIND 232209
RWRIN

WEATHER ROUNDUP FOR INDIANA
NATIONAL WEATHER SERVICE INDIANAPOLIS IN
600 PM EDT FRI JUN 23 2017

NOTE: "FAIR" INDICATES FEW OR NO CLOUDS BELOW 12,000 FEET WITH NO
SIGNIFICANT WEATHER AND/OR OBSTRUCTIONS TO VISIBILITY.

* - STATION DOES NOT REPORT WEATHER SUCH AS PRECIPITATION OR FOG.

+ - STATION NOT QUALITY CONTROLLED BY THE NATIONAL WEATHER SERVICE.
    USE DATA WITH CAUTION...ESPECIALLY DEWPOINT AND RELATIVE
    HUMIDITY OBSERVATIONS.

INZ001>003-010>013-019-020-232300-
NORTHWEST INDIANA

CITY           SKY/WX    TMP DP  RH WIND       PRES   REMARKS
GARY /AIRPORT/ MOSUNNY   79  43  27 CALM      29.73S
KNOX *+        PTSUNNY   75  43  31 N6        29.72F
LA PORTE +     PTSUNNY   76  55  48 N6        29.73F
MICHIGAN CITY+ CLOUDY    75  54  46 N6        29.73S
MONTICELLO +   PTSUNNY   74  56  54 N9        29.73S
RENSSELAER +   CLOUDY    77  46  33 NE5       29.74S
VALPARAISO     CLOUDY    80  51  36 N9        29.73F

$$

LMZ046-743>745-232300-
SOUTHERN LAKE MICHIGAN

STATION/POSITION TIME  TEMP    WIND        PRES    WAVE
                       AIR SEA DIR/SP/G            HT
                 (UTC) (F)     (DEG/KT/KT) (MB)    (FT)
BURNS HARBOR     2140   74      70/  5/  6 1007.1S
MICHIGAN CITY    2140   70      30/  3/  3   N/A
5NW MICH CITY    2200   69 70  110/  2/  2   N/A     1

$$

INZ004-005-014>016-021>024-232300-
NORTH CENTRAL INDIANA

CITY           SKY/WX    TMP DP  RH WIND       PRES   REMARKS
ELKHART        PTSUNNY   73  54  49 NW12      29.72S
GOSHEN         CLOUDY    74  52  46 NW14      29.71S
LOGANSPORT +   PTSUNNY   73  61  64 N13       29.73F
PERU/GRISSOM   PTSUNNY   74  61  63 NW10      29.71S
ROCHESTER +    PTSUNNY   77  59  53 N9        29.73S
SOUTH BEND     PTSUNNY   75  56  51 NW7       29.73S
WARSAW +       CLOUDY    73  59  60 NW12      29.72S

$$

INZ006>009-017-018-025>027-232300-
NORTHEAST INDIANA

CITY           SKY/WX    TMP DP  RH WIND       PRES   REMARKS
AUBURN +       CLOUDY    73  59  60 W13       29.71R
FORT WAYNE     CLOUDY    73  61  65 NW8       29.71R
HUNTINGTON +   CLOUDY    72  63  74 N9        29.72R
KENDALLVILLE + CLOUDY   N/A N/A N/A NW10G16   29.72R

$$

INZ028-029-035-036-043>045-051>053-232300-
WEST CENTRAL INDIANA

CITY           SKY/WX    TMP DP  RH WIND       PRES   REMARKS
CRAWFORDSVL +  CLOUDY    71  68  89 NW8       29.74S
GREENCASTLE +  CLOUDY    72  68  88 N7        29.73S
LAFAYETTE      CLOUDY    76  62  62 NW12      29.73S
TERRE HAUTE    CLOUDY    75  68  78 N10G20    29.73R

$$

INZ030>032-037>040-046>048-054>057-064-065-232300-
CENTRAL INDIANA

CITY           SKY/WX    TMP DP  RH WIND       PRES   REMARKS
CP ATTERBURY + CLOUDY    70  66  88 N7        29.71S
COLUMBUS       CLOUDY    72  68  88 N5        29.70F
FRANKFORT +    CLOUDY    75  63  66 N12       29.75S
GREENWOOD *+   CLOUDY    71  68  92 NW12G17   29.72S
INDIANAPOLIS   CLOUDY    71  68  90 N12       29.71R
-EAGLE CREEK   CLOUDY    72  67  84 N7        29.71S
KOKOMO +       CLOUDY    73  63  70 NW13      29.73S
MARION +       CLOUDY    70  64  83 NW8       29.72F
MT COMFORT *+  CLOUDY    70  68  94 NW12      29.72S
SHELBYVILLE    LGT RAIN  72  67  84 W3        29.70S
ZIONSVILLE +   CLOUDY    70  66  89 N10       29.73S

$$

INZ033-034-041-042-049-050-058-059-232300-
EAST CENTRAL INDIANA

CITY           SKY/WX    TMP DP  RH WIND       PRES   REMARKS
MUNCIE         CLOUDY    71  67  87 NW9       29.71S
RICHMOND +     CLOUDY    66  64  94 W5        29.72F

$$

INZ060-061-067>069-081>083-085>088-232300-
SOUTHWEST INDIANA

CITY           SKY/WX    TMP DP  RH WIND       PRES   REMARKS
EVANSVILLE     LGT RAIN  76  73  91 W7        29.69F
HUNTINGBURG *+ CLOUDY    77  74  90 W9        29.68S
WASHINGTON +   RAIN      76  73  92 NW7       29.69R

$$

INZ062-063-066-070>080-084-089>092-232300-
SOUTH CENTRAL AND SOUTHEAST INDIANA

CITY           SKY/WX    TMP DP  RH WIND       PRES   REMARKS
BEDFORD +      CLOUDY    75  70  83 W3        29.68S
BLOOMINGTON    LGT RAIN  75  71  87 VRB3      29.70R
MADISON *+     CLOUDY    72  68  88 CALM      29.70F
NORTH VERNON + CLOUDY    72  70  94 N3        29.70F
SEYMOUR +      CLOUDY    75  73  94 NE5       29.68F

$$





USA.gov is the U.S. government's official web portal to all federal, state and local government web resources and services.